User: anonymous   Login
Location: Unspecified
(0.0000°N, 0.0000°E)
Time: 17:47:59
(UTC+01:00)
Language:

Timation 2 Rocket - Orbit

View from above orbital plane
View from above orbital plane
View from above satellite
View from above satellite

Ground track
Ground track

The orbit data is extracted from the following two-line orbital elements,

1 04159U 69082AB  17022.45957029 -.00000019  00000-0  32494-4 0  9994
2 04159  69.9631  96.5086 0118712 271.1290  87.6205 13.72366832368085
Epoch (UTC): 22 January 2017 11:01:46
Eccentricity: 0.0118712
inclination: 69.9631°
perigee height: 903 km
apogee height: 1078 km
right ascension of ascending node: 96.5086°
argument of perigee: 271.1290°
revolutions per day: 13.72366832
mean anomaly at epoch: 87.6205°
orbit number at epoch: 36808

The dashed part of the orbit path shows where the satellite is in the earth's shadow,  

DLR